Chattanooga, TN

3:11 AM EDT on September 30, 2016 (GMT -0400)
Lovell

Weather History for KCHA - October, 2013

Change the Weather History Date:

Monday, October 28, 2013

  Actual Average Record
Temperature  
Mean Temperature 56 °F 58 °F  
Max Temperature 63 °F 69 °F 84 °F (1940)
Min Temperature 49 °F 46 °F 26 °F (1957)
Degree Days  
Heating Degree Days 9 8  
Month to date heating degree days 127 131  
Since 1 July heating degree days 127 146  
Cooling Degree Days 0 1  
Month to date cooling degree days 78 49  
Year to date cooling degree days 1748 1738  
Growing Degree Days 6 (Base 50)    
Moisture  
Dew Point 52 °F    
Average Humidity 86    
Maximum Humidity 100    
Minimum Humidity 72    
Precipitation  
Precipitation T in 0.11 in 2.23 in (1935)
Month to date precipitation 0.17 2.94  
Year to date precipitation 56.48 42.24  
Snow  
Snow 0.00 in 0.00 in - ()
Month to date snowfall 0.0 0.0  
Since 1 July snowfall 0.0 0.0  
Since 1 September snowfall 0.0 0.0  
Snow Depth 0.00 in    
Sea Level Pressure  
Sea Level Pressure 30.21 in    
Wind  
Wind Speed 1 mph (SSW)    
Max Wind Speed 7 mph    
Max Gust Speed 16 mph    
Visibility 6 miles    
Events Fog    
T = Trace of Precipitation, MM = Missing Value Source: NWS Daily Summary

Daily Weather History Graph

Daily Weather History Graph

Search for Another Location

Airport or City:

Trip Planner

Search our weather history database for the weather conditions in past years. The results will help you decide how hot, cold, wet, or windy it might be!

Date:

Astronomy

Oct. 28, 2013 Rise Set
Actual Time 7:58 AM EDT 6:50 PM EDT
Civil Twilight 7:32 AM EDT 7:16 PM EDT
Nautical Twilight 7:02 AM EDT 7:46 PM EDT
Astronomical Twilight 6:33 AM EDT 8:15 PM EDT
Moon 2:04 AM EDT (10/28) 3:19 PM EDT (10/28)
Length of Visible Light 11h 43m
Length of Day
10h 51m
Waning Crescent, 34% of the Moon is Illuminated
Oct 28
Waning Crescent
Nov 3
New
Nov 10
First Quarter
Nov 17
Full
Nov 25
Last Quarter

Hourly Weather History & Observations

Time (EDT) Temp. Dew Point Humidity Pressure Visibility Wind Dir Wind Speed Gust Speed Precip Events Conditions
12:53 AM 55.9 °F 52.0 °F 87% 30.13 in 9.0 mi Calm Calm - 0.01 in   Overcast
1:53 AM 55.9 °F 53.1 °F 90% 30.13 in 6.0 mi Calm Calm - N/A   Overcast
2:53 AM 55.9 °F 53.1 °F 90% 30.13 in 9.0 mi Calm Calm - N/A   Overcast
3:53 AM 55.9 °F 52.0 °F 87% 30.14 in 9.0 mi Calm Calm - N/A   Overcast
4:53 AM 54.0 °F 52.0 °F 93% 30.15 in 5.0 mi Calm Calm - N/A   Partly Cloudy
5:43 AM 51.8 °F 48.2 °F 88% 30.17 in 2.5 mi Calm Calm - N/A   Clear
5:53 AM 51.1 °F 50.0 °F 96% 30.17 in 2.5 mi Calm Calm - N/A Fog Patches of Fog
6:08 AM 50.0 °F 48.2 °F 94% 30.18 in 0.5 mi Calm Calm - N/A Fog Fog
6:17 AM 48.2 °F 46.4 °F 93% 30.18 in 0.2 mi Calm Calm - N/A Fog Fog
6:53 AM 48.9 °F 48.0 °F 97% 30.19 in 0.2 mi Calm Calm - N/A Fog Fog
7:09 AM 50.0 °F 48.2 °F 94% 30.19 in 0.8 mi Calm Calm - N/A Fog Patches of Fog
7:36 AM 51.8 °F 50.0 °F 94% 30.19 in 2.0 mi Calm Calm - N/A Fog Patches of Fog
7:53 AM 51.1 °F 50.0 °F 96% 30.20 in 3.0 mi Calm Calm - N/A Fog Patches of Fog
8:53 AM 52.0 °F 50.0 °F 93% 30.22 in 5.0 mi Calm Calm - N/A Fog Patches of Fog
9:53 AM 53.1 °F 51.1 °F 93% 30.25 in 4.0 mi Calm Calm - N/A Fog Patches of Fog
10:53 AM 55.9 °F 54.0 °F 93% 30.25 in 6.0 mi SSW 3.5 mph - 0.00 in Fog Patches of Fog
11:53 AM 57.9 °F 54.0 °F 87% 30.26 in 8.0 mi South 3.5 mph - N/A   Overcast
12:53 PM 59.0 °F 54.0 °F 83% 30.26 in 7.0 mi SSW 3.5 mph - N/A   Overcast
1:53 PM 61.0 °F 54.0 °F 78% 30.23 in 7.0 mi South 4.6 mph - N/A   Overcast
2:07 PM 60.8 °F 53.6 °F 77% 30.23 in 7.0 mi SSW 4.6 mph - N/A   Overcast
2:53 PM 62.1 °F 54.0 °F 75% 30.21 in 7.0 mi SSW 3.5 mph - N/A   Overcast
3:53 PM 62.1 °F 54.0 °F 75% 30.21 in 8.0 mi SSW 5.8 mph - N/A   Overcast
4:48 PM 62.6 °F 55.4 °F 77% 30.22 in 10.0 mi Calm Calm - N/A   Mostly Cloudy
4:53 PM 62.1 °F 55.0 °F 78% 30.22 in 10.0 mi Calm Calm - N/A   Mostly Cloudy
5:53 PM 62.1 °F 55.0 °F 78% 30.22 in 10.0 mi North 3.5 mph - N/A   Mostly Cloudy
6:53 PM 61.0 °F 55.0 °F 81% 30.24 in 10.0 mi Calm Calm - N/A   Mostly Cloudy
7:53 PM 59.0 °F 55.0 °F 87% 30.26 in 9.0 mi Calm Calm - N/A   Mostly Cloudy
8:53 PM 55.9 °F 54.0 °F 93% 30.27 in 10.0 mi Calm Calm - N/A   Mostly Cloudy
9:53 PM 55.9 °F 54.0 °F 93% 30.27 in 9.0 mi Calm Calm - N/A   Mostly Cloudy
10:53 PM 55.9 °F 54.0 °F 93% 30.28 in 8.0 mi Calm Calm - N/A   Mostly Cloudy
11:53 PM 55.9 °F 53.1 °F 90% 30.28 in 6.0 mi Calm Calm - N/A   Mostly Cloudy